Regional Weather Roundup
Issued by NWS Jackson, KY

Home | Current Version | Previous Version | Graphics & Text | Print | Product List | Glossary On
Versions: 1 2 3 4 5 6 7 8 9 10 11 12 13 14 15 16 17 18 19 20 21 22 23 24 25 26 27 28
000
ASUS43 KJKL 121110
RWRJKL

EAST KENTUCKY HOURLY WEATHER ROUNDUP
NATIONAL WEATHER SERVICE JACKSON KY
600 AM EST TUE DEC 12 2017

NOTE: "FAIR" INDICATES FEW OR NO CLOUDS BELOW 12,000 FEET WITH
NO SIGNIFICANT WEATHER AND/OR OBSTRUCTIONS TO VISIBILITY.

* THESE REPORTS ARE NOT UNDER NWS QUALITY CONTROL AND MAY NOT
  REPORT WEATHER SUCH AS PRECIPITATION AND FOG.

KYZ079-080-083-085-087-088-110-112-115-119-120-121200
...EASTERN KENTUCKY...

CITY           SKY/WX    TMP DP  RH WIND       PRES   REMARKS
JACKSON        CLOUDY    40  29  64 W7        29.79S
LONDON         CLOUDY    41  30  65 W13       29.83S
SOMERSET*      CLOUDY    41  32  70 W14       29.88R
MONTICELLO*    CLOUDY    42  32  67 NW16      29.89R
WILLIAMSBURG*  CLOUDY    41  32  70 W8        29.85R
MIDDLESBORO*   CLOUDY    42  30  62 NW8G16    29.85R
HARLAN APT*    CLOUDY    41  30  65 SW8       29.81S
MOREHEAD APT*  CLOUDY    37  28  70 NW14G22   29.83R WCI  29
$$

KYZ035-036-041-042-044-050-067-078-099-121200
...CENTRAL KENTUCKY...

CITY           SKY/WX    TMP DP  RH WIND       PRES   REMARKS
MT STERLING*   CLOUDY    37  30  75 NW8G17    29.84R WCI  31
FLEMING/MASON* CLOUDY    36  29  78 NW15G22   29.83R WCI  26
DANVILLE*      CLOUDY    37  30  75 NW10G16   29.87S WCI  30
LEXINGTON      CLOUDY    39  29  67 W14G24    29.85R WCI  31
FRANKFORT      CLOUDY    38  29  70 NW17G26   29.86R WCI  28
LOUISVILLE     CLOUDY    38  30  73 W17G30    29.92R WCI  28
LEBANON*       CLOUDY    39  32  75 NW13      29.89R WCI  32
GLASGOW*       CLOUDY    40  34  78 NW12G22   29.93R WCI  33
BOWLING GREEN  CLOUDY    42  34  73 NW10G20   29.97R
$$

KYZ091>093-OHZ055-061-077-WVZ005-015-034-035-042-121200
...SOUTHERN OHIO/WEST VIRGINIA...

CITY           SKY/WX    TMP DP  RH WIND       PRES   REMARKS
COVINGTON      DRIZZLE   33  32  96 W17G26    29.84R FOG     WCI  22
COLUMBUS       LGT SNOW  33  31  92 NW16G23   29.73R FOG     WCI  23
DAYTON         LGT SNOW  31  29  92 NW20G26   29.80R FOG     WCI  19
WILMINGTON     LGT RAIN  33  32  96 NW18      29.78R FOG     WCI  22
HUNTINGTON     CLOUDY    40  27  59 W10G22    29.77R WCI  33
CHARLESTON     CLOUDY    44  27  51 W14G25    29.71R
PINEVILLE*     CLOUDY    42  28  56 MISG      29.75S
BECKLEY        MOCLDY    39  25  57 W13G23    29.66R WCI  31
BLUEFIELD      PTCLDY    39  25  57 W16G33    29.65F WCI  30
LOGAN CO APT*  CLOUDY    41  27  56 VRB5G20   29.72S
$$

VAZ002-007-008-TNZ017-027-036-066-071-121200
...SOUTHWEST VIRGINIA/EAST TENNESSEE...

CITY           SKY/WX    TMP DP  RH WIND       PRES   REMARKS
WISE*          CLOUDY    37  30  75 W13       29.75S WCI  29
JONESVILLE*    CLOUDY    43  28  56 W10G16    29.83R
ABINGDON*      CLOUDY    39  32  76 W5        29.74S
BRISTOL        CLOUDY    43  32  65 W10G18    29.77S
MORRISTOWN*    CLOUDY    45  30  57 W6        29.81S
SEVIERVILLE*   CLOUDY    46  32  57 VRB7      29.83S
KNOXVILLE      CLOUDY    43  34  70 SW7       29.83S
LAFOLLETTE*    CLOUDY    45  30  57 CALM      29.87S
OAK RIDGE      CLOUDY    46  30  53 W7        29.86R
CROSSVILLE     MOCLDY    38  28  67 NW8       29.86R WCI  32
NASHVILLE      CLOUDY    45  33  63 NW18G28   29.96R
$$

...KEY TO REMARKS...
VSB - VISIBILITY IN MILES
WCI - WIND CHILL INDEX
HX  - HEAT INDEX

$$




USA.gov is the U.S. government's official web portal to all federal, state and local government web resources and services.